Location: Saint-Restitut
(44.3351°N, 4.7915°E)
Time: 13:12:17
(UTC+00:00)

Cosmos 841 Rocket - Pass Details

Date: 03 February 2023
Orbit: 746 x 771 km, 74.0° (Epoch: 19 March)

Event Time Altitude Azimuth Distance (km) Brightness Sun altitude
Rises 18:30:31 0° 341° (NNW) 3,256 6.9 -17.7°
Reaches altitude 10° 18:32:56 10° 345° (NNW) 2,324 6.1 -18.2°
Maximum altitude 18:38:11 65° 67° (ENE) 849 3.4 -19.1°
Enters shadow 18:42:36 14° 147° (SSE) 2,005 5.4 -19.9°
